GPS BIIRM-2 (PRN 31)

Last updated on Sat Aug 15 2026 00:03:20 GMT+0000 (Coordinated Universal Time)

1 29486U 06042A 26225.84351733 -.00000001 00000+0 00000+0 0 9992 2 29486 54.7137 149.0495 0108007 56.0859 315.8976 2.00566637145553
UTC large
Height (km)
Speed (km/s)
/
Latitude / Longitude
Inclination (degrees)
Orbital Period (minutes)
Azimuth
Elevation
Range (km)
Doppler Factor

Next 0 passes for location: London (51.5072 / 0.1276)

No passes found over London.
GPS BIIRM-2 (PRN 31)